GFSMW_250_spd_189.txt.gz
Wind_Speed
63 65 62 64 62 62 62 60 59 60 59 60 59 57 56 56 56 59 60 60 60 60 62 64 64 65 67 66 66 68 66 66 68 69 72 74 76 76 78 77 76 78 79
66 66 66 66 67 67 67 68 69 69 69 66 64 62 61 61 63 62 61 61 62 63 66 65 65 64 65 66 68 70 72 75 78 78 78 79 81 81 82 83 85 84 86
67 69 71 67 70 71 70 71 73 74 75 75 75 72 71 70 67 67 68 68 66 64 66 67 68 70 73 74 75 78 79 82 85 85 85 86 85 88 90 91 92 92 88
69 68 71 67 72 75 73 74 74 74 78 78 77 77 76 75 75 75 74 76 76 77 76 75 77 79 81 83 84 86 88 89 92 93 93 95 95 95 97 98 99 97 99
80 81 80 78 76 75 74 76 77 78 78 76 76 76 77 78 77 77 76 76 76 78 82 83 83 83 84 86 89 91 93 95 98 97 97 97 101 100 100 100 104 100 91
86 86 87 87 86 84 83 79 79 81 83 83 81 79 81 81 80 80 83 82 83 84 84 85 87 89 91 93 94 92 95 96 98 101 103 104 104 110 110 112 105 92 86
93 94 93 95 92 91 90 90 89 85 86 85 85 85 87 84 88 90 89 86 88 90 91 90 92 95 97 98 99 100 104 106 107 106 107 108 110 114 114 105 98 91 90
100 98 98 96 96 98 98 98 98 93 94 93 94 93 97 94 94 97 96 94 94 96 99 100 105 100 105 105 102 104 108 112 112 113 112 113 116 111 96 91 91 96 97
104 103 101 104 105 107 107 105 103 99 99 98 101 103 104 103 103 103 103 103 103 104 104 105 103 101 107 106 110 107 111 113 115 111 114 112 110 100 95 92 92 93 94
117 113 112 111 110 112 113 113 113 112 109 105 106 109 110 108 109 110 111 108 109 109 111 110 108 109 111 113 116 114 114 118 115 114 111 110 105 94 92 92 95 93 92
121 118 120 121 119 120 116 119 119 115 116 116 119 120 118 116 112 111 115 116 117 117 113 115 114 114 120 120 119 118 118 116 122 120 106 110 98 93 91 90 91 94 99
113 118 127 122 126 122 125 126 128 128 127 130 129 131 129 123 122 121 120 120 119 121 120 121 121 117 120 121 121 120 121 122 118 104 100 92 87 89 88 91 94 96 102
99 105 110 114 128 129 132 134 133 132 132 130 131 125 129 127 126 128 126 125 126 125 123 124 125 123 119 117 125 123 117 106 104 98 91 82 81 87 91 92 94 98 100
104 93 96 101 109 112 115 129 135 139 134 128 128 126 130 131 130 131 133 134 133 131 129 127 127 130 130 119 115 107 104 92 85 83 83 88 87 92 96 95 97 102 105
96 88 88 92 95 99 103 108 115 117 117 118 117 120 119 122 122 124 126 127 125 126 129 129 127 116 120 111 95 91 88 84 87 85 82 90 91 96 97 99 106 110 104
83 82 83 85 87 91 93 95 98 101 105 106 107 108 110 114 116 119 119 121 117 113 113 113 109 103 94 83 79 82 89 74 73 82 84 91 95 97 99 98 92 94 93
74 74 75 76 79 83 84 86 88 90 93 95 96 96 98 101 103 103 105 104 102 98 94 90 87 80 75 71 72 71 67 69 76 87 91 92 94 90 96 97 98 92 93
72 71 70 70 71 74 76 77 79 79 83 82 84 83 87 88 87 87 85 83 80 78 75 73 71 68 68 66 68 68 73 77 81 85 85 86 86 87 82 85 89 94 94
67 67 67 67 68 70 69 68 68 71 75 76 78 79 79 81 77 78 73 71 68 67 66 67 65 65 65 64 71 71 72 76 79 83 87 84 84 83 86 85 92 86 81
64 64 63 61 61 64 60 63 62 64 66 70 73 76 76 76 73 73 74 69 68 67 64 67 66 65 65 69 74 75 79 83 85 86 85 81 85 86 91 95 88 80 75
62 61 59 57 58 59 57 59 61 63 64 67 69 74 72 73 65 72 74 73 69 69 69 69 71 70 70 75 80 84 87 88 88 85 85 84 83 88 90 86 79 73 70
56 57 57 54 55 59 57 57 58 59 60 63 67 65 68 69 71 73 75 75 73 75 73 74 75 75 77 79 82 85 86 85 85 84 84 82 85 88 89 82 73 70 69
50 51 50 49 55 54 53 53 53 54 56 59 61 63 65 67 67 71 72 76 78 77 76 76 78 77 79 79 81 83 80 79 83 79 80 83 89 86 81 70 69 70 69
42 47 44 46 50 48 47 47 47 47 49 53 57 59 61 62 64 65 67 74 76 76 77 79 79 78 78 77 75 75 77 78 77 78 77 79 80 75 65 66 68 69 69
40 50 42 43 47 47 44 41 41 41 42 45 49 51 54 56 58 60 64 68 70 72 74 73 72 75 74 75 76 75 77 79 75 71 74 76 66 63 64 66 67 67 68
37 43 38 39 43 42 41 42 40 38 40 41 43 44 47 49 51 54 57 61 64 66 66 67 69 70 67 66 66 68 72 72 68 64 59 57 60 62 63 64 65 66 67

GFSMW_250_spd_192.txt.gz
Wind_Speed
61 63 58 62 61 62 54 56 58 60 58 58 60 58 59 56 56 56 60 57 54 55 53 57 57 58 57 57 59 60 61 61 60 58 60 65 63 65 68 69 71 71 74
59 58 66 67 63 66 61 61 64 65 64 61 64 64 67 64 66 66 67 63 61 62 62 64 61 60 60 60 60 61 63 65 66 67 67 70 70 72 74 76 78 78 81
62 65 69 68 67 66 72 66 68 68 69 69 68 66 68 69 70 72 72 71 69 67 66 65 66 67 65 68 71 72 71 72 73 74 73 74 74 77 79 80 83 84 88
69 73 76 78 76 72 72 75 71 72 71 71 70 69 71 72 70 71 72 73 73 72 71 70 70 67 68 71 75 76 76 77 80 79 80 83 82 83 85 86 87 87 88
72 75 80 85 83 82 78 79 77 79 78 79 78 77 75 73 72 74 74 74 72 72 72 70 70 71 74 76 79 80 81 81 85 86 86 86 91 92 91 90 93 98 99
80 83 81 83 90 89 87 87 84 83 85 85 87 85 84 84 81 80 80 79 77 77 77 75 75 78 80 83 84 86 90 89 91 93 96 96 96 96 98 101 100 102 105
95 94 93 93 97 91 87 90 94 90 86 88 92 89 87 88 88 88 91 88 85 83 81 82 83 86 89 90 91 93 96 96 98 100 101 101 103 104 103 108 110 110 108
101 103 103 105 106 106 98 91 96 100 98 98 98 97 94 95 90 88 93 96 94 91 91 90 91 92 95 97 99 99 103 103 104 106 105 107 108 108 110 111 110 110 112
111 110 108 115 118 117 115 107 101 105 103 106 103 106 102 101 99 96 98 100 97 94 93 94 93 95 97 101 102 102 102 105 105 110 112 111 108 107 105 105 108 109 109
135 133 135 136 122 130 125 120 118 113 114 110 109 111 108 108 105 102 102 106 107 107 101 99 96 101 105 105 106 106 108 109 107 107 116 115 114 113 111 111 109 110 113
145 124 125 122 120 127 130 134 127 122 120 121 122 122 118 114 114 110 110 111 111 111 110 110 109 110 110 115 114 117 113 116 114 116 117 118 117 118 119 114 108 111 104
138 127 120 108 109 114 120 124 131 136 136 131 127 126 127 124 124 122 120 117 119 121 121 117 115 118 122 120 118 120 118 116 116 117 120 118 119 116 111 109 105 107 96
116 116 110 104 99 96 98 104 113 122 130 136 134 134 133 129 133 133 130 129 128 122 124 123 125 124 125 121 123 118 123 120 123 121 119 114 114 105 103 102 102 94 83
108 99 100 95 92 92 87 89 94 103 111 120 125 132 138 136 133 134 134 135 136 135 133 131 130 128 122 122 123 117 112 113 115 113 111 105 101 102 96 96 94 91 91
97 92 89 89 89 88 81 79 87 93 99 103 109 116 122 129 131 130 134 136 134 134 135 133 132 132 129 125 115 112 115 113 113 106 103 97 92 94 92 92 95 86 91
86 84 81 78 83 77 74 78 81 83 88 91 94 101 103 110 113 119 124 124 126 123 124 122 122 119 112 107 103 106 104 97 94 88 88 89 91 85 88 91 92 96 99
78 76 75 74 69 70 65 69 76 78 79 85 86 89 94 99 102 106 110 113 115 113 111 109 105 102 102 98 94 89 85 83 82 82 77 75 78 82 87 96 88 89 91
71 69 70 72 63 63 61 59 66 72 76 78 82 84 86 88 91 93 94 96 97 98 98 96 94 92 91 88 81 76 70 68 70 74 75 78 82 88 80 81 89 91 93
63 61 63 68 65 56 57 58 62 65 65 70 75 78 80 83 85 86 88 88 88 87 83 82 80 80 75 72 67 66 66 67 70 73 74 77 76 81 86 87 89 93 95
61 56 57 60 60 61 55 51 58 61 59 60 66 71 74 78 81 83 79 78 79 79 75 72 70 68 65 65 64 63 66 71 74 75 77 75 79 84 88 90 94 98 97
58 56 53 54 55 54 52 50 57 59 58 58 60 64 69 71 75 77 78 78 79 78 74 71 68 64 65 65 64 67 67 70 72 71 76 78 82 86 92 94 97 98 99
56 55 51 53 53 53 51 51 52 56 55 54 56 59 65 64 71 74 73 70 72 72 68 68 66 66 66 66 70 69 72 75 76 78 80 81 83 87 90 89 91 93 91
52 54 51 49 48 49 52 52 49 51 49 48 51 54 59 62 66 67 67 66 69 72 72 73 71 70 71 72 74 73 73 73 76 81 82 80 81 80 81 81 82 83 83
47 48 45 44 45 46 50 48 45 43 43 44 45 49 53 57 59 60 61 63 64 69 69 70 73 73 75 77 78 76 76 77 77 76 77 80 79 76 76 75 76 77 76
43 40 42 40 46 47 47 47 44 40 39 39 39 43 46 50 55 58 60 61 63 66 69 70 72 74 74 76 76 73 70 71 73 73 74 73 74 72 71 72 70 67 66
40 37 40 40 43 44 41 40 38 38 38 37 37 39 41 45 48 49 55 58 60 61 61 66 67 69 68 69 68 68 67 67 66 68 67 65 67 68 65 61 61 65 63

GFSMW_250_spd_198.txt.gz
Wind_Speed
42 40 42 45 42 49 54 58 57 61 62 58 53 52 52 53 56 58 57 55 52 54 57 58 58 57 58 57 55 54 52 51 52 54 54 51 53 56 58 57 59 59 57
53 55 56 59 50 50 58 58 56 65 68 69 67 59 57 56 59 61 62 62 62 61 60 60 62 64 66 67 65 65 63 62 62 62 61 63 64 64 63 63 62 63 63
63 64 67 69 67 66 71 71 69 62 67 72 72 68 67 65 66 67 69 70 68 66 67 67 66 66 65 66 65 66 65 62 60 61 62 62 64 67 68 70 71 73 74
67 67 67 68 71 73 75 81 81 76 74 72 76 72 72 73 73 76 78 76 75 75 74 72 71 73 74 72 71 71 70 67 66 64 65 63 64 71 73 76 78 80 78
79 76 75 76 77 80 82 82 80 78 81 81 76 77 76 78 76 74 73 73 75 74 80 81 79 77 79 76 75 74 72 71 70 68 70 70 70 71 73 75 80 82 81
82 86 88 88 85 77 78 84 83 78 79 86 82 79 82 77 80 84 81 80 80 80 82 84 89 90 85 84 84 82 82 78 77 78 78 78 79 80 80 80 84 85 85
89 95 92 92 95 87 85 80 83 81 76 76 74 82 80 80 76 83 88 88 89 86 92 94 88 90 91 88 87 86 87 89 89 84 87 88 88 88 89 91 92 93 92
98 97 98 96 87 89 93 91 94 90 84 84 87 87 90 92 91 94 94 90 91 94 84 86 88 90 90 88 92 93 92 89 91 95 92 94 94 96 96 98 98 98 97
103 97 88 96 95 99 103 101 103 106 102 100 98 92 90 103 101 100 102 96 95 103 107 109 107 101 100 100 101 95 95 93 93 96 94 96 99 98 100 104 103 105 103
105 105 105 97 105 112 118 119 120 121 114 112 116 113 110 107 107 113 106 108 104 110 111 112 114 112 103 110 109 98 108 100 103 103 101 106 104 104 106 106 109 105 104
102 104 114 119 120 130 129 128 127 129 122 119 120 123 120 119 126 124 124 124 120 125 121 121 118 113 115 115 116 112 114 116 114 114 113 114 113 113 113 113 114 110 108
118 120 127 130 136 132 122 120 125 123 120 111 109 107 112 109 119 117 113 112 113 115 121 122 126 119 127 121 121 121 121 118 119 117 114 119 119 115 118 119 116 114 115
131 134 139 142 140 129 124 117 114 112 107 101 96 93 90 90 93 92 94 91 95 98 100 104 113 116 122 128 126 131 122 120 117 117 114 118 120 124 122 120 112 114 116
139 136 127 124 120 109 104 102 103 99 92 87 85 82 81 78 78 79 82 86 83 87 89 92 97 98 108 116 117 120 116 115 118 114 119 125 127 124 117 118 119 120 118
121 116 112 109 102 92 89 86 87 84 78 80 81 78 79 75 75 79 80 80 76 82 87 85 88 93 101 110 105 107 109 109 115 118 124 126 128 131 128 127 128 125 125
112 104 98 90 82 76 72 72 77 72 68 73 74 76 77 77 76 77 78 81 80 80 80 80 82 87 91 98 100 101 100 103 110 110 114 118 117 113 113 112 114 114 109
96 88 83 74 66 65 63 64 69 66 62 63 68 69 68 71 77 79 77 79 80 77 73 78 79 79 83 87 91 93 95 96 97 98 100 101 101 99 99 102 102 103 103
80 75 68 65 60 58 57 57 61 60 57 57 56 61 65 67 71 69 71 75 72 73 74 78 80 74 73 78 79 84 85 85 85 85 88 89 91 93 94 92 92 95 95
73 67 61 56 55 56 54 55 53 55 49 46 48 50 58 64 66 66 67 70 72 72 72 78 76 76 75 75 75 76 79 78 76 78 80 82 83 84 86 85 84 83 84
64 61 56 53 52 52 51 45 47 48 48 45 47 50 53 58 62 64 68 71 70 71 72 75 77 76 73 72 71 69 69 67 69 71 71 72 72 73 72 72 72 73 75
58 56 51 49 46 47 43 44 45 46 49 48 48 49 53 56 60 64 67 67 69 71 73 75 75 74 68 65 65 63 60 63 63 64 65 65 65 64 63 64 65 68 69
54 52 47 44 44 44 40 39 43 45 46 49 50 53 52 48 50 53 57 58 61 63 66 69 70 69 61 61 60 57 57 59 60 61 62 63 63 61 63 64 66 66 67
47 45 42 36 35 37 37 37 38 40 42 46 50 51 50 48 50 50 48 50 55 59 62 64 65 63 58 55 56 55 56 59 59 61 61 62 63 64 65 65 66 66 66
36 29 28 32 34 33 33 34 34 36 40 45 45 44 41 42 45 45 47 50 53 56 58 59 59 58 56 53 55 55 55 56 58 61 64 65 65 65 65 66 67 67 68
35 31 28 31 33 35 36 36 37 37 41 41 37 40 39 38 40 41 43 46 49 52 54 55 55 53 51 51 51 52 53 54 56 60 63 65 65 66 66 67 68 70 72
35 33 32 36 37 38 39 40 39 37 39 37 33 36 36 34 36 40 41 41 43 44 46 47 48 47 47 47 47 49 50 53 55 57 60 62 64 64 67 70 70 70 70

GFSMW_250_spd_201.txt.gz
Wind_Speed
41 41 42 43 42 47 50 54 53 50 52 58 58 58 60 63 64 63 58 54 56 56 53 51 54 57 59 61 63 63 61 60 58 55 54 53 55 55 55 54 53 53 53
52 54 52 52 54 57 56 57 54 59 63 66 67 67 66 65 65 68 67 64 64 64 63 61 59 59 61 64 67 69 70 69 68 69 66 64 64 64 62 63 63 63 65
53 58 58 61 64 61 62 60 61 59 64 68 68 71 72 73 74 69 73 71 68 71 71 71 70 70 70 68 67 68 69 72 74 76 74 73 72 73 72 72 69 67 66
60 60 67 68 67 71 70 63 68 68 70 74 75 73 76 75 75 76 77 71 72 73 73 75 76 76 78 77 76 76 75 72 70 71 76 75 73 73 74 75 75 73 71
69 66 74 74 76 80 80 78 71 77 77 82 81 76 67 69 63 70 70 72 73 71 75 74 75 78 79 77 78 77 79 79 78 77 76 76 77 78 78 77 77 76 76
78 77 79 80 80 84 85 88 87 85 83 85 80 77 70 58 62 63 72 75 76 74 74 75 77 77 80 80 83 83 83 83 82 83 85 85 81 81 82 83 83 83 82
85 89 89 90 93 94 91 95 94 93 91 90 85 80 72 67 66 73 81 79 79 80 81 87 89 88 85 80 86 92 90 88 91 91 91 91 88 85 85 86 88 89 92
87 90 91 96 101 98 96 92 94 97 102 98 85 82 81 82 81 82 92 93 90 91 85 82 96 98 96 94 91 96 96 96 89 92 94 95 93 90 90 89 92 91 90
86 92 99 105 98 95 96 94 96 99 93 95 85 92 91 94 90 96 95 90 67 93 87 79 88 100 106 104 101 102 104 102 98 96 99 100 100 94 95 96 98 102 102
108 106 98 99 93 90 95 97 93 94 95 97 99 97 99 102 109 112 90 109 87 90 106 113 109 107 111 107 107 106 117 109 103 98 103 100 101 108 108 109 109 107 110
111 109 106 107 104 106 104 103 105 109 111 116 121 124 121 118 115 117 119 121 115 112 113 113 125 130 132 124 122 119 121 116 112 108 113 114 106 111 115 115 114 119 116
109 107 107 111 117 120 124 131 132 126 121 125 123 126 122 116 111 111 115 117 119 124 124 123 133 144 137 140 131 122 127 130 122 118 120 116 118 116 116 112 109 111 111
115 121 128 134 136 135 131 131 127 123 119 122 120 117 117 114 111 101 103 108 111 118 115 123 127 132 138 132 126 121 121 126 123 129 122 123 123 125 123 117 116 119 125
137 137 131 130 132 133 129 129 125 120 116 115 115 111 107 100 98 92 93 93 100 105 107 112 114 115 120 121 118 114 115 110 111 112 110 109 108 110 115 115 117 115 114
134 137 134 131 124 126 120 123 116 111 108 103 95 90 86 84 84 84 84 84 86 92 105 111 113 114 116 118 111 107 107 100 102 105 101 106 107 112 116 119 120 124 125
134 126 121 123 112 112 112 110 103 100 91 87 79 74 72 72 75 77 78 76 78 83 96 101 107 110 115 113 106 102 103 101 104 108 105 102 108 108 112 114 115 117 120
122 114 111 109 104 99 96 91 86 83 79 75 69 66 64 67 68 72 73 74 73 72 84 88 94 103 105 105 105 110 103 98 97 100 103 104 107 104 106 110 111 116 120
106 105 102 98 93 85 80 77 73 70 70 63 59 58 57 60 64 67 65 64 69 73 77 82 87 89 92 94 96 92 88 85 91 96 98 100 99 97 100 104 105 104 108
99 95 89 85 78 71 66 65 62 59 59 54 53 51 50 52 57 60 59 62 68 72 76 80 86 85 88 88 89 89 84 79 85 90 91 92 91 92 93 94 96 97 95
85 78 75 74 66 60 58 55 53 51 51 47 46 46 45 47 51 55 56 59 64 69 75 77 77 76 78 81 82 80 81 81 81 76 78 77 73 77 82 83 84 82 82
74 72 68 63 58 52 49 48 46 44 44 47 46 47 47 49 52 54 57 58 61 66 70 74 75 76 78 79 77 75 75 73 71 67 63 61 61 65 69 74 75 76 78
66 64 60 59 53 46 44 43 42 42 42 43 44 44 47 49 50 52 54 55 57 60 61 63 65 69 69 68 67 66 66 64 63 62 63 64 62 62 65 70 70 70 72
60 57 54 53 47 41 39 39 38 39 41 42 41 42 46 47 48 48 48 49 53 54 54 55 60 64 60 60 59 53 57 58 60 60 56 56 58 61 63 65 66 68 68
56 51 49 47 39 40 40 38 36 34 34 37 38 41 48 48 48 45 47 46 49 48 48 51 55 57 55 55 54 52 48 47 49 50 51 52 54 57 60 63 65 67 68
54 48 43 35 32 38 40 41 41 39 38 40 41 42 47 45 41 43 45 45 46 45 44 47 50 50 51 50 49 45 45 44 44 47 49 50 52 54 57 59 61 64 65
51 46 39 34 33 38 39 41 41 41 41 42 42 42 45 44 37 37 38 40 42 42 42 41 41 42 43 43 42 41 42 41 42 43 45 47 49 52 56 58 61 62 62